Date String (YYYY-MM-DD hh:mm:ss) UTC,Instrument flags,absolute air pressure of the measurement (hPa),sample flow rate (lpm),inlet stack bypass flow (lpm),air temperature of the measurement (°C),ambient temperature measured by the external sensor (°C),aerosol sample conditioner tube jacket temperature (°C),OPC LED temperature (°C),internal box temperature (°C),relative humidity of the measurement (%),span deviation,mass concentration of particles derived from Lorenz-Mie calculation of OPC scattering (μg/m³),mass concentration of particles derived from Lorenz-Mie calculation of OPC scattering (μg/m³),mass concentration of particles derived from Lorenz-Mie calculation of OPC scattering (μg/m³)
DateTimeUTC,F1_M11,P_M11,Q1_M11,Q2_M11,T1_M11,T2_M11,T3_M11,T4_M11,T5_M11,U1_M11,ZSPAN_M11,X0_M11,X2_M11,X1_M11
2024-05-18 19:00:00,SystemResetWarning,0829.0,4.99,000.00,024.4,024.0,000.0,032.4,026.3,025.9,0000.0,0021.07,0005.53,0003.61
2024-05-18 19:01:00,SystemResetWarning,0828.9,5.00,000.00,024.5,024.1,000.0,032.4,026.4,025.8,0000.0,0021.42,0005.54,0003.60
2024-05-18 19:02:00,SystemResetWarning,0828.8,4.98,000.00,024.5,023.2,000.0,032.5,025.9,026.2,0000.0,0021.53,0005.53,0003.59
2024-05-18 19:03:00,SystemResetWarning,0828.7,5.01,000.00,024.2,021.9,000.0,032.6,025.2,026.3,0000.0,0021.44,0005.53,0003.60
2024-05-18 19:04:00,SystemResetWarning,0828.8,5.01,000.00,024.0,022.1,000.0,032.6,025.2,026.8,0000.0,0021.34,0005.51,0003.60
2024-05-18 19:05:00,SystemResetWarning,0828.7,4.99,000.00,024.0,022.4,000.0,032.5,025.4,026.7,0000.0,0020.84,0005.48,0003.61
2024-05-18 19:06:00,SystemResetWarning,0828.8,4.99,000.00,024.1,022.7,000.0,032.4,025.6,027.3,0000.0,0020.42,0005.43,0003.60
2024-05-18 19:07:00,SystemResetWarning,0828.8,5.00,000.00,024.1,022.9,000.0,032.4,025.7,027.0,0000.0,0021.52,0005.46,0003.60
2024-05-18 19:08:00,SystemResetWarning,0828.7,5.00,000.00,024.2,023.2,000.0,032.4,025.9,026.9,0000.0,0021.36,0005.46,0003.60
2024-05-18 19:09:00,SystemResetWarning,0828.8,5.01,000.00,024.2,023.4,000.0,032.4,026.0,027.4,0000.0,0021.67,0005.46,0003.58
2024-05-18 19:10:00,SystemResetWarning,0828.8,5.00,000.00,024.3,023.6,000.0,032.4,026.2,026.4,0000.0,0021.39,0005.47,0003.58
2024-05-18 19:11:00,SystemResetWarning,0828.9,4.99,000.00,024.4,023.8,000.0,032.4,026.2,027.2,0000.0,0021.26,0005.45,0003.57
2024-05-18 19:12:00,SystemResetWarning,0828.9,5.00,000.00,024.4,023.9,000.0,032.4,026.3,027.0,0000.0,0020.46,0005.41,0003.56
2024-05-18 19:13:00,SystemResetWarning,0828.9,5.00,000.00,024.5,024.0,000.0,032.5,026.3,026.9,0000.0,0020.56,0005.44,0003.56
2024-05-18 19:14:00,SystemResetWarning,0828.8,4.99,000.00,024.4,022.7,000.0,032.6,025.7,026.8,0000.0,0021.20,0005.45,0003.56
2024-05-18 19:15:00,SystemResetWarning,0828.8,5.02,000.00,024.1,021.9,000.0,032.6,025.2,026.8,0000.0,0020.36,0005.44,0003.56
2024-05-18 19:16:00,SystemResetWarning,0828.7,4.99,000.00,024.0,022.2,000.0,032.6,025.3,026.8,0000.0,0019.73,0005.42,0003.55
2024-05-18 19:17:00,SystemResetWarning,0828.7,4.99,000.00,024.1,022.5,000.0,032.4,025.5,027.0,0000.0,0019.96,0005.39,0003.55
2024-05-18 19:18:00,SystemResetWarning,0828.8,4.99,000.00,024.1,022.8,000.0,032.4,025.6,028.0,0000.0,0020.43,0005.38,0003.56
2024-05-18 19:19:00,SystemResetWarning,0828.8,5.01,000.00,024.2,023.1,000.0,032.4,025.9,028.6,0000.0,0020.88,0005.40,0003.55
2024-05-18 19:20:00,SystemResetWarning,0828.8,5.01,000.00,024.2,023.3,000.0,032.4,026.0,027.6,0000.0,0022.21,0005.39,0003.56
2024-05-18 19:21:00,SystemResetWarning,0828.7,5.00,000.00,024.3,023.5,000.0,032.4,026.1,027.4,0000.0,0022.48,0005.33,0003.55
2024-05-18 19:22:00,SystemResetWarning,0828.7,5.00,000.00,024.4,023.7,000.0,032.4,026.2,028.2,0000.0,0022.32,0005.29,0003.55
2024-05-18 19:23:00,SystemResetWarning,0828.7,5.01,000.00,024.4,023.8,000.0,032.4,026.3,027.7,0000.0,0022.75,0005.25,0003.54
2024-05-18 19:24:00,SystemResetWarning,0828.6,5.00,000.00,024.5,024.0,000.0,032.5,026.3,027.2,0000.0,0021.99,0005.14,0003.53
2024-05-18 19:25:00,SystemResetWarning,0828.6,4.98,000.00,024.4,023.0,000.0,032.5,025.8,026.7,0000.0,0021.30,0005.09,0003.52
2024-05-18 19:26:00,SystemResetWarning,0828.6,5.01,000.00,024.1,021.2,000.0,032.6,024.9,027.7,0000.0,0021.57,0005.07,0003.51
2024-05-18 19:27:00,SystemResetWarning,0828.6,5.01,000.00,023.8,021.0,000.0,032.6,024.7,028.5,0000.0,0022.11,0005.03,0003.49
2024-05-18 19:28:00,SystemResetWarning,0828.6,5.00,000.00,023.7,021.5,000.0,032.5,024.9,028.2,0000.0,0023.80,0005.05,0003.48
2024-05-18 19:29:00,SystemResetWarning,0828.6,5.00,000.00,023.8,021.9,000.0,032.3,025.1,027.9,0000.0,0022.36,0005.03,0003.47
2024-05-18 19:30:00,SystemResetWarning,0828.6,4.99,000.00,023.8,022.2,000.0,032.3,025.3,028.1,0000.0,0022.14,0004.99,0003.48
2024-05-18 19:31:00,SystemResetWarning,0828.5,5.00,000.00,023.9,022.6,000.0,032.2,025.5,027.5,0000.0,0020.15,0004.98,0003.48
2024-05-18 19:32:00,SystemResetWarning,0828.6,5.00,000.00,023.9,022.9,000.0,032.2,025.6,027.9,0000.0,0019.47,0004.99,0003.49
2024-05-18 19:33:00,SystemResetWarning,0828.5,5.00,000.00,024.0,023.1,000.0,032.2,025.8,027.8,0000.0,0018.77,0005.07,0003.50
2024-05-18 19:34:00,SystemResetWarning,0828.6,5.01,000.00,024.1,023.3,000.0,032.2,025.9,027.7,0000.0,0018.58,0005.23,0003.52
2024-05-18 19:35:00,SystemResetWarning,0828.5,5.00,000.00,024.1,023.5,000.0,032.2,026.0,027.2,0000.0,0019.09,0005.34,0003.53
2024-05-18 19:36:00,SystemResetWarning,0828.6,4.99,000.00,024.2,023.7,000.0,032.2,026.1,027.0,0000.0,0019.21,0005.38,0003.55
2024-05-18 19:37:00,SystemResetWarning,0828.6,4.99,000.00,024.3,023.8,000.0,032.3,026.2,027.5,0000.0,0019.39,0005.40,0003.56
2024-05-18 19:38:00,SystemResetWarning,0828.6,5.00,000.00,024.4,023.9,000.0,032.3,026.3,026.8,0000.0,0019.66,0005.45,0003.56
2024-05-18 19:39:00,SystemResetWarning,0828.6,5.01,000.00,024.4,024.0,000.0,032.4,026.4,027.2,0000.0,0018.51,0005.48,0003.55
2024-05-18 19:40:00,SystemResetWarning,0828.5,4.99,000.00,024.4,022.9,000.0,032.5,025.7,027.2,0000.0,0017.84,0005.44,0003.54
2024-05-18 19:41:00,SystemResetWarning,0828.4,5.00,000.00,024.0,021.1,000.0,032.5,024.8,027.8,0000.0,0017.54,0005.43,0003.53
2024-05-18 19:42:00,SystemResetWarning,0828.4,5.01,000.00,023.7,021.0,000.0,032.5,024.6,028.6,0000.0,0019.53,0005.45,0003.52
2024-05-18 19:43:00,SystemResetWarning,0828.4,5.02,000.00,023.7,021.5,000.0,032.4,024.8,028.0,0000.0,0019.80,0005.41,0003.51
2024-05-18 19:44:00,SystemResetWarning,0828.4,4.98,000.00,023.7,021.9,000.0,032.2,025.0,028.2,0000.0,0020.38,0005.37,0003.49
2024-05-18 19:45:00,SystemResetWarning,0828.6,5.00,000.00,023.7,022.2,000.0,032.2,025.3,027.9,0000.0,0021.52,0005.31,0003.47
2024-05-18 19:46:00,SystemResetWarning,0828.6,5.01,000.00,023.8,022.6,000.0,032.1,025.5,028.7,0000.0,0021.54,0005.23,0003.46
2024-05-18 19:47:00,SystemResetWarning,0828.6,5.00,000.00,023.9,022.8,000.0,032.1,025.6,027.8,0000.0,0021.21,0005.19,0003.45
2024-05-18 19:48:00,SystemResetWarning,0828.6,5.00,000.00,023.9,023.1,000.0,032.1,025.7,027.2,0000.0,0021.14,0005.24,0003.45
2024-05-18 19:49:00,SystemResetWarning,0828.6,4.99,000.00,024.0,023.3,000.0,032.1,025.9,027.2,0000.0,0020.32,0005.23,0003.44
2024-05-18 19:50:00,SystemResetWarning,0828.5,5.00,000.00,024.1,023.5,000.0,032.1,026.0,027.1,0000.0,0019.24,0005.18,0003.45
2024-05-18 19:51:00,SystemResetWarning,0828.6,5.00,000.00,024.2,023.6,000.0,032.2,026.1,027.3,0000.0,0018.88,0005.17,0003.45
2024-05-18 19:52:00,SystemResetWarning,0828.6,4.99,000.00,024.3,023.8,000.0,032.2,026.2,026.6,0000.0,0018.24,0005.12,0003.44
2024-05-18 19:53:00,SystemResetWarning,0828.6,4.99,000.00,024.3,023.9,000.0,032.2,026.3,027.6,0000.0,0017.06,0005.06,0003.42
2024-05-18 19:54:00,SystemResetWarning,0828.6,5.01,000.00,024.4,024.0,000.0,032.3,026.3,027.1,0000.0,0017.54,0005.06,0003.40
2024-05-18 19:55:00,SystemResetWarning,0828.6,4.99,000.00,024.4,023.7,000.0,032.4,026.1,026.4,0000.0,0018.15,0005.02,0003.39
2024-05-18 19:56:00,SystemResetWarning,0828.5,5.00,000.00,024.2,022.1,000.0,032.5,025.2,026.7,0000.0,0016.65,0004.97,0003.38
2024-05-18 19:57:00,SystemResetWarning,0828.5,5.02,000.00,024.0,021.9,000.0,032.5,025.1,027.2,0000.0,0016.96,0004.99,0003.38
2024-05-18 19:58:00,SystemResetWarning,0828.5,4.98,000.00,023.9,022.2,000.0,032.4,025.2,027.4,0000.0,0017.07,0005.02,0003.37
2024-05-18 19:59:00,SystemResetWarning,0828.5,5.00,000.00,024.0,022.5,000.0,032.3,025.5,027.5,0000.0,0017.11,0004.96,0003.37
